Date String (YYYY-MM-DD hh:mm:ss) UTC,Instrument flags,Ambient pressure (hPa),Sample flow (lpm),Bypass flow (lpm),Sample temperature (°C),Ambient temperature (°C),ASC tube jacket temperature (°C),LED temperature (°C),Box temperature (°C),Sample RH (%),Span deviation,Mass concentration (μg/m³),Mass concentration (μg/m³),Mass concentration (μg/m³)
DateTimeUTC,F1_M11,P_M11,Q1_M11,Q2_M11,T1_M11,T2_M11,T3_M11,T4_M11,T5_M11,U1_M11,ZSPAN_M11,X0_M11,X2_M11,X1_M11
2022-05-22 18:00:00,,0829.8,4.99,0.00,25.7,24.9,00.0,34.6,27.7,17.5,0000.0,0000.19,0000.03,0000.01
2022-05-22 18:01:00,,0829.7,5.00,0.00,25.8,25.0,00.0,34.6,27.7,17.0,0000.0,0000.19,0000.03,0000.01
2022-05-22 18:02:00,,0829.8,5.01,0.00,25.8,25.0,00.0,34.6,27.8,17.4,0000.0,0000.19,0000.03,0000.01
2022-05-22 18:03:00,,0829.7,4.98,0.00,25.8,25.1,00.0,34.7,27.8,17.0,0000.0,0000.19,0000.03,0000.01
2022-05-22 18:04:00,,0829.8,5.01,0.00,25.8,25.1,00.0,34.7,27.8,16.3,0000.0,0000.12,0000.02,0000.01
2022-05-22 18:05:00,,0829.7,5.00,0.00,25.9,25.1,00.0,34.7,27.9,16.2,0000.0,0000.10,0000.02,0000.00
2022-05-22 18:06:00,,0829.7,5.00,0.00,25.9,25.2,00.0,34.7,27.9,16.5,0000.0,0000.10,0000.02,0000.00
2022-05-22 18:07:00,,0829.7,5.01,0.00,25.9,25.2,00.0,34.7,27.9,16.9,0000.0,0000.03,0000.01,0000.00
2022-05-22 18:08:00,,0829.7,5.00,0.00,26.0,25.2,00.0,34.7,27.9,16.7,0000.0,0000.01,0000.00,0000.00
2022-05-22 18:09:00,,0829.6,5.01,0.00,26.0,25.3,00.0,34.7,28.0,17.3,0000.0,0000.03,0000.01,0000.00
2022-05-22 18:10:00,,0829.6,5.00,0.00,26.0,25.3,00.0,34.8,28.0,18.5,0000.0,0000.03,0000.01,0000.00
2022-05-22 18:11:00,,0829.6,4.99,0.00,26.0,25.3,00.0,34.8,28.0,17.8,0000.0,0000.03,0000.01,0000.00
2022-05-22 18:12:00,,0829.5,5.01,0.00,26.1,25.4,00.0,34.8,28.0,17.9,0000.0,0000.04,0000.02,0000.01
2022-05-22 18:13:00,,0829.5,4.99,0.00,26.1,25.4,00.0,34.8,28.0,18.5,0000.0,0000.07,0000.03,0000.01
2022-05-22 18:14:00,,0829.5,5.01,0.00,26.1,25.4,00.0,34.9,28.0,18.8,0000.0,0000.09,0000.03,0000.01
2022-05-22 18:15:00,,0829.5,4.99,0.00,26.1,25.4,00.0,34.9,28.0,18.0,0000.0,0000.09,0000.03,0000.01
2022-05-22 18:16:00,,0829.5,5.01,0.00,26.1,25.3,00.0,34.9,28.0,16.8,0000.0,0000.09,0000.03,0000.01
2022-05-22 18:17:00,,0829.5,4.99,0.00,26.1,25.4,00.0,34.9,28.1,17.2,0000.0,0000.09,0000.03,0000.01
2022-05-22 18:18:00,,0829.5,5.00,0.00,26.1,25.4,00.0,34.9,28.1,17.9,0000.0,0000.09,0000.03,0000.01
2022-05-22 18:19:00,,0829.5,5.00,0.00,26.1,25.4,00.0,34.9,28.1,16.9,0000.0,0000.08,0000.03,0000.01
2022-05-22 18:20:00,,0829.6,5.00,0.00,26.2,25.4,00.0,34.9,28.1,17.1,0000.0,0000.06,0000.02,0000.01
2022-05-22 18:21:00,,0829.5,4.99,0.00,26.2,25.4,00.0,34.9,28.1,17.0,0000.0,0000.08,0000.03,0000.01
2022-05-22 18:22:00,,0829.5,5.00,0.00,26.2,25.4,00.0,35.0,28.1,18.3,0000.0,0000.10,0000.04,0000.01
2022-05-22 18:23:00,,0829.5,5.00,0.00,26.2,25.5,00.0,35.0,28.2,18.6,0000.0,0000.09,0000.03,0000.00
2022-05-22 18:24:00,,0829.5,5.00,0.00,26.2,25.5,00.0,35.0,28.1,18.0,0000.0,0000.06,0000.02,0000.00
2022-05-22 18:25:00,,0829.5,5.00,0.00,26.2,25.4,00.0,35.0,28.1,18.3,0000.0,0000.04,0000.02,0000.00
2022-05-22 18:26:00,,0829.5,4.99,0.00,26.2,25.4,00.0,35.0,28.1,17.6,0000.0,0000.04,0000.02,0000.00
2022-05-22 18:27:00,,0829.4,5.00,0.00,26.2,25.4,00.0,35.0,28.1,17.0,0000.0,0000.04,0000.02,0000.00
2022-05-22 18:28:00,,0829.3,5.01,0.00,26.2,25.4,00.0,35.0,28.1,17.4,0000.0,0000.04,0000.02,0000.00
2022-05-22 18:29:00,,0829.3,4.99,0.00,26.2,25.4,00.0,35.1,28.1,17.1,0000.0,0000.04,0000.02,0000.00
2022-05-22 18:30:00,,0829.2,5.01,0.00,26.2,25.4,00.0,35.1,28.2,18.2,0000.0,0000.04,0000.02,0000.00
2022-05-22 18:31:00,,0829.4,4.99,0.00,26.2,25.4,00.0,35.1,28.2,18.6,0000.0,0000.04,0000.02,0000.00
2022-05-22 18:32:00,,0829.4,5.01,0.00,26.3,25.4,00.0,35.1,28.2,18.5,0000.0,0000.03,0000.02,0000.00
2022-05-22 18:33:00,,0829.4,5.00,0.00,26.3,25.5,00.0,35.1,28.2,17.7,0000.0,0000.00,0000.00,0000.00
2022-05-22 18:34:00,,0829.3,4.98,0.00,26.3,25.5,00.0,35.1,28.2,17.2,0000.0,0000.00,0000.00,0000.00
2022-05-22 18:35:00,,0829.2,5.01,0.00,26.3,25.5,00.0,35.1,28.2,16.9,0000.0,0000.02,0000.01,0000.00
2022-05-22 18:36:00,,0829.2,4.99,0.00,26.3,25.5,00.0,35.1,28.3,18.3,0000.0,0000.03,0000.01,0000.01
2022-05-22 18:37:00,,0829.3,5.00,0.00,26.3,25.6,00.0,35.1,28.3,18.7,0000.0,0000.03,0000.01,0000.01
2022-05-22 18:38:00,,0829.2,4.99,0.00,26.4,25.6,00.0,35.2,28.3,18.4,0000.0,0000.03,0000.01,0000.00
2022-05-22 18:39:00,,0829.2,5.00,0.00,26.4,25.6,00.0,35.2,28.3,18.6,0000.0,0000.03,0000.01,0000.00
2022-05-22 18:40:00,,0829.2,5.01,0.00,26.4,25.7,00.0,35.2,28.4,18.4,0000.0,0000.03,0000.01,0000.00
2022-05-22 18:41:00,,0829.2,4.99,0.00,26.4,25.7,00.0,35.2,28.4,19.1,0000.0,0000.03,0000.01,0000.00
2022-05-22 18:42:00,,0829.2,5.00,0.00,26.4,25.7,00.0,35.2,28.4,18.3,0000.0,0000.03,0000.01,0000.00
2022-05-22 18:43:00,,0829.2,4.99,0.00,26.5,25.7,00.0,35.2,28.4,17.5,0000.0,0000.03,0000.01,0000.00
2022-05-22 18:44:00,,0829.2,5.01,0.00,26.5,25.7,00.0,35.3,28.4,16.9,0000.0,0000.03,0000.01,0000.00
2022-05-22 18:45:00,,0829.2,4.99,0.00,26.5,25.8,00.0,35.3,28.5,16.8,0000.0,0000.03,0000.01,0000.00
2022-05-22 18:46:00,,0829.2,5.00,0.00,26.5,25.8,00.0,35.3,28.5,16.9,0000.0,0000.01,0000.01,0000.00
2022-05-22 18:47:00,,0829.3,5.00,0.00,26.5,25.8,00.0,35.3,28.5,16.8,0000.0,0000.00,0000.00,0000.00
2022-05-22 18:48:00,,0829.2,5.01,0.00,26.6,25.9,00.0,35.3,28.5,17.1,0000.0,0000.01,0000.00,0000.00
2022-05-22 18:49:00,,0829.2,4.98,0.00,26.6,25.9,00.0,35.3,28.6,17.7,0000.0,0000.01,0000.00,0000.00
2022-05-22 18:50:00,,0829.2,5.01,0.00,26.6,25.9,00.0,35.4,28.6,17.8,0000.0,0000.01,0000.00,0000.00
2022-05-22 18:51:00,,0829.1,4.99,0.00,26.6,25.9,00.0,35.4,28.6,17.4,0000.0,0000.01,0000.00,0000.00
2022-05-22 18:52:00,,0829.1,4.99,0.00,26.6,26.0,00.0,35.4,28.6,17.7,0000.0,0000.01,0000.00,0000.00
2022-05-22 18:53:00,,0829.1,5.00,0.00,26.7,26.0,00.0,35.4,28.6,18.5,0000.0,0000.01,0000.00,0000.00
2022-05-22 18:54:00,,0829.1,5.00,0.00,26.7,26.0,00.0,35.4,28.6,18.6,0000.0,0000.01,0000.00,0000.00
2022-05-22 18:55:00,,0829.0,5.00,0.00,26.7,26.0,00.0,35.5,28.7,18.4,0000.0,0000.01,0000.00,0000.00
2022-05-22 18:56:00,,0829.0,5.00,0.00,26.7,26.0,00.0,35.5,28.7,17.9,0000.0,0000.01,0000.00,0000.00
2022-05-22 18:57:00,,0829.0,5.01,0.00,26.7,26.1,00.0,35.5,28.7,17.9,0000.0,0000.01,0000.00,0000.00
2022-05-22 18:58:00,,0829.0,5.00,0.00,26.8,26.1,00.0,35.5,28.7,17.4,0000.0,0000.00,0000.00,0000.00
2022-05-22 18:59:00,,0829.0,5.00,0.00,26.8,26.1,00.0,35.5,28.8,17.6,0000.0,0000.00,0000.00,0000.00
